Change the Weather History Date:

Tuesday, July 2, 2013

  Actual Average Record
Temperature  
Mean Temperature 64 °F -  
Max Temperature 70 °F 69 °F - ()
Min Temperature 58 °F 49 °F - ()
Degree Days  
Heating Degree Days 1    
Growing Degree Days 14 (Base 50)    
Moisture  
Dew Point 57 °F    
Average Humidity 77    
Maximum Humidity 100    
Minimum Humidity 54    
Precipitation  
Precipitation 0.00 in 0.09 in - ()
Sea Level Pressure  
Sea Level Pressure 29.95 in    
Wind  
Wind Speed 14 mph ()    
Max Wind Speed 20 mph    
Max Gust Speed 29 mph    
Visibility 6.4 miles    
Events Rain    
T = Trace of Precipitation, MM = Missing Value Source: Averaged Metar Reports

Daily Weather History Graph

Daily Weather History Graph

Search for Another Location

Airport or City:

Trip Planner

Search our weather history database for the weather conditions in past years. The results will help you decide how hot, cold, wet, or windy it might be!

Date:

Astronomy

Jul. 02, 2013 Rise Set
Actual Time 6:38 AM AEST 5:04 PM AEST
Civil Twilight 6:12 AM AEST 5:30 PM AEST
Nautical Twilight 5:43 AM AEST 5:59 PM AEST
Astronomical Twilight 5:15 AM AEST 6:27 PM AEST
Moon 1:09 AM AEST (7/2) 12:36 PM AEST (7/2)
Length of Visible Light 11h 17m
Length of Day
10h 26m
Waning Crescent, 32% of the Moon is Illuminated
Jul 2
Waning Crescent
Jul 8
New
Jul 16
First Quarter
Jul 23
Full
Jul 30
Last Quarter

Hourly Weather History & Observations

Time (AEST) Temp. Dew Point Humidity Pressure Visibility Wind Dir Wind Speed Gust Speed Precip Events Conditions
12:00 AM 60 °F 56 °F 83% 29.85 in 9 mi SSW 19.6 mph - - Rain Light Rain
12:00 AM 60.8 °F 57.2 °F 88% 29.83 in 6.2 mi SSW 19.6 mph - N/A Rain Light Rain
12:30 AM 60.8 °F 57.2 °F 88% 29.83 in 5.6 mi SSW 19.6 mph - N/A Rain Light Rain
1:00 AM 60 °F 57 °F 86% 29.84 in - SSW 17.3 mph - -  
1:00 AM 60.8 °F 57.2 °F 88% 29.83 in 6.2 mi SSW 17.3 mph - N/A   Overcast
1:30 AM 59.0 °F 57.2 °F 94% 29.83 in 5.0 mi SSW 17.3 mph - N/A Rain Light Rain
2:00 AM 59.0 °F 57.2 °F 94% 29.83 in 4.3 mi SSW 16.1 mph - N/A Rain Light Rain
2:30 AM 59.0 °F 57.2 °F 94% 29.83 in 4.3 mi SSW 18.4 mph - N/A Rain Rain
3:00 AM 60 °F 58 °F 89% 29.84 in 4 mi SSW 16.1 mph - - Rain Rain
3:00 AM 59.0 °F 57.2 °F 94% 29.83 in 4.3 mi SSW 16.1 mph - N/A Rain Rain
3:14 AM 59.0 °F 57.2 °F 94% 29.83 in 4.3 mi SSW 17.3 mph 28.8 mph N/A Rain Rain
3:30 AM 59.0 °F 57.2 °F 94% 29.86 in 4.3 mi South 13.8 mph - N/A Rain Rain
4:00 AM 59.0 °F 59.0 °F 100% 29.86 in 3.1 mi SSW 13.8 mph - N/A Rain Light Rain
4:30 AM 59.0 °F 59.0 °F 100% 29.86 in 3.1 mi SSW 13.8 mph - N/A Rain Light Rain
5:00 AM 60.8 °F 57.2 °F 88% 29.89 in 3.1 mi SSW 12.7 mph - N/A Rain Light Rain
5:30 AM 59.0 °F 59.0 °F 100% 29.89 in 5.0 mi SSW 8.1 mph - N/A Rain Light Rain
6:00 AM 59 °F 58 °F 96% 29.91 in 6 mi SSW 12.7 mph - - Rain Light Rain
6:00 AM 59.0 °F 59.0 °F 100% 29.89 in 6.2 mi SSW 12.7 mph - N/A Rain Light Rain
6:22 AM 59.0 °F 57.2 °F 94% 29.89 in 3.1 mi SSW 12.7 mph - N/A Rain Rain Showers
6:30 AM 59.0 °F 57.2 °F 94% 29.92 in 3.7 mi SSW 12.7 mph - N/A Rain Light Rain Showers
7:00 AM 61 °F 57 °F 84% 29.92 in - SSW 11.5 mph - -  
7:00 AM 60.8 °F 57.2 °F 88% 29.92 in 6.2 mi SSW 11.5 mph - N/A   Scattered Clouds
7:30 AM 60.8 °F 57.2 °F 88% 29.92 in 6.2 mi South 10.4 mph - N/A   Light Drizzle
8:00 AM 62.6 °F 57.2 °F 82% 29.95 in 6.2 mi SSW 11.5 mph - N/A   Scattered Clouds
8:30 AM 62.6 °F 57.2 °F 82% 29.95 in 6.2 mi SSW 16.1 mph - N/A   Mostly Cloudy
9:00 AM 63 °F 57 °F 76% 29.97 in 9 mi SSW 15.0 mph - -   Mostly Cloudy
9:00 AM 62.6 °F 57.2 °F 82% 29.95 in 6.2 mi SSW 15.0 mph - N/A   Mostly Cloudy
9:30 AM 64.4 °F 57.2 °F 77% 29.98 in 6.2 mi SSW 12.7 mph - N/A   Light Drizzle
10:00 AM 65 °F 59 °F 74% 29.99 in - SSW 12.7 mph - -  
10:00 AM 66.2 °F 59.0 °F 78% 29.98 in 6.2 mi SSW 12.7 mph - N/A   Drizzle
10:30 AM 66.2 °F 57.2 °F 73% 29.98 in 6.2 mi SW 11.5 mph - N/A   Mostly Cloudy
11:00 AM 68.0 °F 57.2 °F 68% 29.98 in 6.2 mi SSW 16.1 mph - N/A   Mostly Cloudy
11:30 AM 66.2 °F 57.2 °F 73% 29.95 in 6.2 mi SSW 16.1 mph - N/A   Mostly Cloudy
12:00 PM 66 °F 59 °F 71% 29.96 in 6 mi SSW 15.0 mph - - Rain Light Rain Showers
12:00 PM 66.2 °F 59.0 °F 78% 29.95 in 6.2 mi SSW 15.0 mph - N/A Rain Light Rain Showers
12:30 PM 69.8 °F 57.2 °F 64% 29.95 in 6.2 mi SSW 17.3 mph - N/A   Mostly Cloudy
1:00 PM 70 °F 57 °F 54% 29.95 in - SSW 13.8 mph - -  
1:00 PM 69.8 °F 57.2 °F 64% 29.95 in 6.2 mi SSW 13.8 mph - N/A   Scattered Clouds
1:30 PM 69.8 °F 57.2 °F 64% 29.95 in 6.2 mi SSW 12.7 mph - N/A   Mostly Cloudy
2:00 PM 68.0 °F 57.2 °F 68% 29.95 in 6.2 mi SSW 10.4 mph - N/A Rain Light Rain Showers
2:30 PM 69.8 °F 57.2 °F 64% 29.95 in 6.2 mi South 9.2 mph - N/A   Scattered Clouds
3:00 PM 70 °F 57 °F 54% 29.96 in 16 mi SSW 13.8 mph - - Rain Light Rain Showers
3:00 PM 69.8 °F 57.2 °F 64% 29.95 in 6.2 mi SSW 13.8 mph - N/A   Scattered Clouds
3:30 PM 68.0 °F 55.4 °F 64% 29.98 in 6.2 mi SSW 12.7 mph - N/A   Mostly Cloudy
4:00 PM 68 °F 56 °F 56% 29.99 in - SSW 15.0 mph - -  
4:00 PM 68.0 °F 55.4 °F 64% 29.98 in 6.2 mi SSW 15.0 mph - N/A   Scattered Clouds
4:30 PM 68.0 °F 55.4 °F 64% 29.98 in 6.2 mi SSW 13.8 mph - N/A   Scattered Clouds
5:00 PM 66.2 °F 55.4 °F 68% 30.01 in 6.2 mi SSW 12.7 mph - N/A   Scattered Clouds
5:30 PM 66.2 °F 55.4 °F 68% 30.01 in 6.2 mi SSW 13.8 mph - N/A   Scattered Clouds
6:00 PM 64 °F 56 °F 67% 30.03 in 19 mi SSW 10.4 mph - -   Partly Cloudy
6:00 PM 64.4 °F 55.4 °F 73% 30.01 in 6.2 mi SSW 10.4 mph - N/A   Partly Cloudy
6:30 PM 64.4 °F 55.4 °F 73% 30.04 in 6.2 mi SSW 12.7 mph - N/A   Scattered Clouds
7:00 PM 64 °F 55 °F 64% 30.04 in - SSW 11.5 mph - -  
7:00 PM 64.4 °F 55.4 °F 73% 30.04 in 6.2 mi SSW 11.5 mph - N/A   Scattered Clouds
7:30 PM 64.4 °F 55.4 °F 73% 30.04 in 6.2 mi SSW 11.5 mph - N/A   Partly Cloudy
8:00 PM 64.4 °F 53.6 °F 68% 30.06 in 6.2 mi SSW 12.7 mph - N/A   Partly Cloudy
8:30 PM 64.4 °F 53.6 °F 68% 30.06 in 6.2 mi SSW 12.7 mph - N/A   Partly Cloudy
9:00 PM 64 °F 54 °F 60% 30.07 in 19 mi SSW 12.7 mph - -   Partly Cloudy
9:00 PM 64.4 °F 53.6 °F 68% 30.06 in 6.2 mi SSW 12.7 mph - N/A   Partly Cloudy
9:30 PM 64.4 °F 53.6 °F 68% 30.06 in 6.2 mi SSW 11.5 mph - N/A   Partly Cloudy
10:00 PM 63 °F 54 °F 65% 30.09 in - SSW 12.7 mph - -  
10:00 PM 62.6 °F 53.6 °F 72% 30.06 in 6.2 mi SSW 12.7 mph - N/A   Partly Cloudy
10:30 PM 62.6 °F 53.6 °F 72% 30.06 in 6.2 mi SSW 12.7 mph - N/A   Partly Cloudy
11:00 PM 62.6 °F 53.6 °F 72% 30.06 in 6.2 mi SSW 12.7 mph - N/A   Partly Cloudy
11:30 PM 62.6 °F 53.6 °F 72% 30.06 in 6.2 mi SSW 11.5 mph - N/A   Partly Cloudy